Weather History for KPHD - February, 2014

Change the Weather History Date:

Monday, February 17, 2014

  Actual Average Record
Temperature  
Mean Temperature 18 °F 32 °F  
Max Temperature 37 °F 41 °F 65 °F (1984)
Min Temperature -2 °F 22 °F -9 °F (1979)
Degree Days  
Heating Degree Days 47 33  
Month to date heating degree days 767 584  
Since 1 July heating degree days 4252 3856  
Cooling Degree Days 0 0  
Month to date cooling degree days 0 0  
Year to date cooling degree days 0 0  
Moisture  
Dew Point 13 °F    
Average Humidity 64    
Maximum Humidity 88    
Minimum Humidity 39    
Precipitation  
Precipitation 0.08 in 0.07 in 0.58 in (1998)
Month to date precipitation 1.27 1.38  
Year to date precipitation 3.09 3.98  
Sea Level Pressure  
Sea Level Pressure 30.09 in    
Wind  
Wind Speed 9 mph (SE)    
Max Wind Speed 22 mph    
Max Gust Speed 34 mph    
Visibility 6 miles    
Events Fog , Rain , Snow    
T = Trace of Precipitation, MM = Missing Value Source: NWS Daily Summary

Daily Weather History Graph

Daily Weather History Graph

Search for Another Location

Airport or City:

Trip Planner

Search our weather history database for the weather conditions in past years. The results will help you decide how hot, cold, wet, or windy it might be!

Date:

Astronomy

Feb. 17, 2014 Rise Set
Actual Time 7:16 AM EST 6:03 PM EST
Civil Twilight 6:48 AM EST 6:31 PM EST
Nautical Twilight 6:16 AM EST 7:03 PM EST
Astronomical Twilight 5:45 AM EST 7:34 PM EST
Moon 8:57 PM EST (2/17) 8:15 AM EST (2/17)
Length of Visible Light 11h 42m
Length of Day
10h 46m
Waning Gibbous, 93% of the Moon is Illuminated
Feb 17
Waning Gibbous
Feb 22
Last Quarter
Mar 1
New
Mar 8
First Quarter
Mar 16
Full

Hourly Weather History & Observations

Time (EST) Temp. Windchill Dew Point Humidity Pressure Visibility Wind Dir Wind Speed Gust Speed Precip Events Conditions
12:53 AM 10.9 °F - 7.0 °F 84% 30.40 in 4.0 mi Calm Calm - N/A   Overcast
1:50 AM 10.4 °F - 6.8 °F 85% 30.34 in 3.0 mi Calm Calm - N/A   Mostly Cloudy
1:53 AM 10.9 °F - 7.0 °F 84% 30.39 in 3.0 mi Calm Calm - N/A   Overcast
2:33 AM 7.0 °F - 3.0 °F 84% 30.34 in 4.0 mi Calm Calm - N/A   Overcast
2:53 AM 7.0 °F - 3.0 °F 84% 30.39 in 3.0 mi Calm Calm - N/A   Overcast
3:13 AM 7.0 °F - 3.0 °F 84% 30.33 in 4.0 mi Calm Calm - N/A   Overcast
3:53 AM 6.1 °F - 1.9 °F 83% 30.38 in 5.0 mi Calm Calm - N/A   Overcast
4:53 AM 5.0 °F - -0.0 °F 80% 30.39 in 3.0 mi Calm Calm - N/A   Haze
5:53 AM 1.0 °F - -4.0 °F 79% 30.43 in 6.0 mi Calm Calm - N/A   Haze
6:53 AM -0.0 °F -7.9 °F -5.1 °F 79% 30.42 in 7.0 mi SE 3.5 mph - N/A   Clear
7:53 AM 1.0 °F - -2.9 °F 83% 30.44 in 5.0 mi Calm Calm - N/A   Clear
8:53 AM 7.0 °F -1.7 °F 3.0 °F 84% 30.44 in 4.0 mi ESE 4.6 mph - N/A   Clear
9:53 AM 12.9 °F 1.6 °F 8.1 °F 81% 30.42 in 8.0 mi SE 8.1 mph - N/A   Clear
10:53 AM 18.0 °F 6.9 °F 8.1 °F 65% 30.39 in 10.0 mi SE 9.2 mph - N/A   Clear
11:53 AM 21.9 °F 12.5 °F 8.1 °F 55% 30.35 in 10.0 mi SSE 8.1 mph - N/A   Overcast
12:53 PM 25.0 °F 13.6 °F 8.1 °F 49% 30.26 in 10.0 mi SE 12.7 mph - N/A   Overcast
1:53 PM 27.0 °F 18.0 °F 8.1 °F 45% 30.21 in 10.0 mi SE 9.2 mph - N/A   Clear
2:53 PM 28.9 °F 19.2 °F 9.0 °F 43% 30.14 in 10.0 mi ESE 11.5 mph - N/A   Scattered Clouds
3:53 PM 30.0 °F 17.5 °F 8.1 °F 40% 30.08 in 10.0 mi ESE 19.6 mph 24.2 mph N/A   Overcast
4:53 PM 30.0 °F 18.7 °F 10.0 °F 43% 30.02 in 10.0 mi ESE 16.1 mph - N/A   Overcast
5:53 PM 30.9 °F 21.7 °F 10.9 °F 43% 29.97 in 10.0 mi ESE 11.5 mph - N/A   Overcast
6:53 PM 30.9 °F 22.2 °F 12.0 °F 46% 29.93 in 10.0 mi ESE 10.4 mph - N/A   Mostly Cloudy
7:53 PM 32.0 °F 25.6 °F 12.9 °F 45% 29.89 in 8.0 mi SE 6.9 mph - 0.00 in Snow Light Snow
8:01 PM 30.9 °F 19.8 °F 18.0 °F 59% 29.84 in 1.5 mi SE 16.1 mph 27.6 mph 0.00 in Snow Light Snow
8:03 PM 30.0 °F 19.5 °F 21.0 °F 69% 29.84 in 0.8 mi SE 13.8 mph 27.6 mph 0.00 in Snow Light Snow
8:11 PM 28.0 °F 16.1 °F 24.1 °F 85% 29.83 in 0.2 mi SE 16.1 mph 21.9 mph 0.01 in Fog , Snow Heavy Snow
8:25 PM 28.9 °F 17.7 °F 26.1 °F 89% 29.81 in 1.0 mi ESE 15.0 mph - 0.02 in Snow Light Snow
8:33 PM 28.9 °F 16.5 °F 26.1 °F 89% 29.80 in 1.5 mi ESE 18.4 mph - 0.02 in Snow Light Snow
8:43 PM 30.0 °F 18.3 °F 26.1 °F 85% 29.79 in 2.0 mi SE 17.3 mph - 0.03 in Snow Light Snow
8:53 PM 30.0 °F 17.5 °F 26.1 °F 85% 29.82 in 1.8 mi SE 19.6 mph 25.3 mph 0.03 in Snow Light Snow
9:01 PM 30.0 °F 18.3 °F 26.1 °F 85% 29.76 in 2.5 mi SE 17.3 mph - 0.00 in Snow Light Snow
9:07 PM 30.9 °F 19.4 °F 27.0 °F 85% 29.75 in 4.0 mi SE 17.3 mph - 0.00 in Snow Light Snow
9:53 PM 33.1 °F 21.9 °F 27.0 °F 78% 29.76 in 10.0 mi SE 18.4 mph 21.9 mph 0.00 in   Overcast
10:41 PM 36.0 °F 26.7 °F 28.0 °F 73% 29.74 in 2.5 mi SSE 15.0 mph 20.7 mph 0.03 in Snow Light Snow
10:53 PM 36.0 °F 26.3 °F 28.9 °F 76% 29.77 in 3.0 mi South 16.1 mph 25.3 mph 0.04 in Snow Light Snow
11:29 PM 37.0 °F 29.8 °F 30.9 °F 79% 29.75 in 9.0 mi SSW 10.4 mph 21.9 mph 0.01 in   Overcast
11:53 PM 37.0 °F 27.0 °F 33.1 °F 86% 29.80 in 9.0 mi WSW 18.4 mph 32.2 mph 0.01 in Rain Light Rain